Cincinnati, OH

5:55 PM EDT on September 19, 2019 (GMT -0400)
Cincinnati Municipal-Lunken

Weather History for KLUK - July, 2019

Change the Weather History Date:

Friday, July 12, 2019

  Actual Average Record
Temperature  
Mean Temperature 78 °F -  
Max Temperature 88 °F 86 °F 95 °F (1983)
Min Temperature 68 °F 66 °F 54 °F (1963)
Cooling Degree Days 12    
Growing Degree Days 28 (Base 50)    
Moisture  
Dew Point 61 °F    
Average Humidity 60    
Maximum Humidity 90    
Minimum Humidity 41    
Precipitation  
Precipitation 0.00 in - - ()
Sea Level Pressure  
Sea Level Pressure 29.92 in    
Wind  
Wind Speed 3 mph (NW)    
Max Wind Speed 10 mph    
Max Gust Speed -    
Visibility 10 miles    
Events      
Averages and records for this station are not official NWS values.
T = Trace of Precipitation, MM = Missing Value Source: NWS Daily Summary

Daily Weather History Graph

Daily Weather History Graph

Search for Another Location

Airport or City:

Astronomy

Jul. 12, 2019 Rise Set
Actual Time 6:21 AM EDT 9:04 PM EDT
Civil Twilight 5:50 AM EDT 9:35 PM EDT
Nautical Twilight 5:10 AM EDT 10:15 PM EDT
Astronomical Twilight 4:26 AM EDT 10:59 PM EDT
Moon 5:23 PM EDT (7/12) 3:03 AM EDT (7/12)
Length of Visible Light 15h 45m
Length of Day
14h 42m
Waxing Gibbous, 82% of the Moon is Illuminated
Jul 12
Waxing Gibbous
Jul 16
Full
Jul 24
Last Quarter
Jul 31
New
Aug 7
First Quarter

Hourly Weather History & Observations

Time (EDT) Temp. Heat Index Dew Point Humidity Pressure Visibility Wind Dir Wind Speed Gust Speed Precip Events Conditions
12:53 AM 70.0 °F - 66.9 °F 90% 29.86 in 10.0 mi Calm Calm - N/A   Clear
1:53 AM 69.1 °F - 66.0 °F 90% 29.87 in 10.0 mi Calm Calm - N/A   Clear
2:53 AM 73.0 °F - 64.0 °F 73% 29.87 in 10.0 mi NE 3.5 mph - N/A   Clear
3:53 AM 73.0 °F - 63.0 °F 71% 29.88 in 10.0 mi NNW 6.9 mph - N/A   Clear
4:53 AM 71.1 °F - 61.0 °F 70% 29.89 in 10.0 mi Calm Calm - N/A   Clear
5:53 AM 68.0 °F - 61.0 °F 78% 29.91 in 10.0 mi Calm Calm - N/A   Clear
6:53 AM 68.0 °F - 61.0 °F 78% 29.92 in 10.0 mi East 3.5 mph - N/A   Clear
7:53 AM 71.1 °F - 61.0 °F 70% 29.93 in 10.0 mi Calm Calm - N/A   Clear
8:53 AM 73.0 °F - 61.0 °F 66% 29.94 in 10.0 mi Calm Calm - N/A   Clear
9:53 AM 75.9 °F - 62.1 °F 62% 29.94 in 10.0 mi Calm Calm - N/A   Clear
10:53 AM 78.1 °F - 64.0 °F 62% 29.94 in 10.0 mi Variable 6.9 mph - N/A   Clear
11:53 AM 82.0 °F 82.4 °F 60.1 °F 47% 29.95 in 10.0 mi NNW 10.4 mph - N/A   Clear
12:53 PM 84.0 °F 84.5 °F 62.1 °F 47% 29.95 in 10.0 mi NW 8.1 mph - N/A   Clear
1:53 PM 84.0 °F 84.0 °F 60.1 °F 44% 29.95 in 10.0 mi Calm Calm - N/A   Clear
2:53 PM 86.0 °F 86.1 °F 61.0 °F 43% 29.94 in 10.0 mi Variable 4.6 mph - N/A   Clear
3:53 PM 86.0 °F 86.3 °F 62.1 °F 44% 29.92 in 10.0 mi Variable 6.9 mph - N/A   Clear
4:53 PM 87.1 °F 87.0 °F 61.0 °F 41% 29.92 in 10.0 mi West 9.2 mph - N/A   Clear
5:53 PM 86.0 °F 86.1 °F 61.0 °F 43% 29.91 in 10.0 mi West 8.1 mph - N/A   Clear
6:53 PM 86.0 °F 85.7 °F 60.1 °F 41% 29.91 in 10.0 mi NW 8.1 mph - N/A   Clear
7:53 PM 84.0 °F 84.0 °F 60.1 °F 44% 29.93 in 10.0 mi WNW 9.2 mph - N/A   Clear
8:53 PM 80.1 °F 80.7 °F 59.0 °F 48% 29.94 in 10.0 mi NW 8.1 mph - N/A   Clear
9:53 PM 78.1 °F - 55.9 °F 46% 29.95 in 10.0 mi Calm Calm - N/A   Clear
10:53 PM 70.0 °F - 61.0 °F 73% 29.97 in 10.0 mi SSE 3.5 mph - N/A   Clear
11:53 PM 68.0 °F - 60.1 °F 76% 29.96 in 10.0 mi Calm Calm - N/A   Clear